Flag for Canada Weather past 2 weeks in Welland, Ontario, Canada

Now
64 °F

Mild.


Feels Like: 64 °F
Forecast: 57 / 72 °F
Wind: 12 mph from West

Location: Port Colborne Airport

Current Time: Jul 31, 2014 at 4:07:09 AM

Latest Report: Jul 31, 2014 at 3:00 AM


Visibility: N/A

Pressure: 30.00 "Hg

Humidity: 62%

Dew point: 51 °F

Location of WellandLocation

Historic Weather in Welland — Graph

°F

Welland temperature yesterday

Maximum temperature yesterday: 68 °F (at 11:00 PM)
Minimum temperature yesterday: 62 °F (at 12:00 AM)
Average temperature yesterday: 66 °F

Past Weeks' High & Low Weather Summary

 TemperatureHumidityPressure
High76 °F (Jul 22, 11:00 PM)94% (Jul 27, 5:00 AM)30.26 "Hg (Jul 27, 5:00 AM)
Low54 °F (Jul 29, 3:00 AM)37% (Jul 24, 5:00 PM)29.58 "Hg (Jul 28, 4:00 AM)
Average66 °F72%29.99 "Hg
* Reported Jul 16 3:00 AM — Jul 31 3:00 AM, Welland, Weather by CustomWeather, © 2014

Note: Actual official high and low records may vary slightly from our data, if they occured in-between our weather recording intervals... More about our weather records

Advertising

Welland weather history for previous 24 hours

 ConditionsComfort  
Time TempWeatherWind HumidityBarometerVisibility
3:00 AM
Jul 31
64 °FMild.12 mph62%30.00 "HgN/A
2:00 AM64 °FMild.2 mph61%29.98 "HgN/A
1:00 AM64 °FMild.7 mph60%29.99 "HgN/A
12:00 AM65 °FMild.9 mph62%29.99 "HgN/A
11:00 PM
Jul 30
68 °FMild.15 mph66%30.00 "HgN/A
10:00 PM68 °FMild.18 mph74%29.99 "HgN/A
9:00 PM67 °FMild.17 mph73%29.97 "HgN/A
8:00 PM67 °FMild.16 mph74%29.97 "HgN/A
7:00 PM67 °FMild.17 mph68%29.97 "HgN/A
6:00 PM67 °FMild.16 mph72%29.96 "HgN/A
5:00 PM67 °FMild.22 mph63%29.96 "HgN/A
4:00 PM67 °FMild.18 mph71%29.95 "HgN/A
3:00 PM67 °FMild.22 mph75%29.96 "HgN/A
2:00 PM66 °FMild.22 mph78%29.96 "HgN/A
1:00 PM65 °FMild.23 mph79%29.96 "HgN/A
12:00 PM65 °FMild.22 mph78%29.98 "HgN/A
11:00 AM65 °FMild.21 mph73%29.98 "HgN/A
10:00 AM64 °FMild.20 mph80%29.98 "HgN/A
9:00 AM64 °FMild.23 mph77%29.97 "HgN/A
8:00 AM64 °FMild.17 mph76%29.96 "HgN/A
7:00 AM65 °FMild.20 mph75%29.96 "HgN/A
6:00 AM64 °FMild.20 mph76%29.95 "HgN/A
5:00 AM65 °FMild.21 mph71%29.94 "HgN/A
4:00 AM64 °FMild.22 mph76%29.93 "HgN/A
Weather by CustomWeather, © 2014

See weather overviewHow to use our weather pages